Showing default

PAUSAT-1, 62653

Orbit data source: Space-Track

PAUSAT-1, 62653 is a Turkish payload satellite in SSO that was launched on Tue, 14 Jan 2025 UTC via an FALCON 9 launch vehicle from the Air Force Western Test Range (AFWTR). Payload-class satellites include a variety of spacecraft equipped with specific instruments for various scientific and technological missions. These include communications satellites like Starlink; space stations such as the ISS; scientific satellites like the Hubble; Earth observation satellites from companies like Planet Labs, Umbra, and HawkEye 360; GPS; miniature CubeSats for education and research; and military/defense satellites.

Loading next visibility...
Identifier
62653, 2025-009AW
Orbit
SSO
Country
Flag of UnknownUnknown / TURK
Related business
Manufacturer
ITUTR/PAU
Mission
Operational Amateur Imaging
Bus & Motor
CUBESAT 16U, Unknown motor
Mass
~30 kg wet, ~30 kg dry
Launch date (UTC)
2025-01-14 (9 months ago)
Launch vehicle
FALCON 9
Launch site
Air Force Western Test Range (AFWTR)
Object type
Payload
Rocket body
Debris
Shape & HBR
Box + 2 Pan, 0.3 m
Radar Cross Section
0.124 m², Medium (>0.1 m² and < 1m²)

Expand to show TLE details & history
Last TLE update: 8 hours ago

TLE from 8 hours ago
0 PAUSAT-1
1 62653U 25009AW  25300.90773871  .00006563  00000-0  29829-3 0  9993
2 62653  97.4172  18.9780 0002991  75.4809 284.6759 15.21083186 43442
Epoch: 2025-10-27T21:47Z
TLE epoch observation values (Epoch: 2025-10-27T21:47:08.624Z)
Latitude
0.00004°
Longitude
15.68922°
Altitude
505.143 km
Speed
7.612 km/s
True Right ascension
01h 15m 54s
True Declination
0° 00' 00"
Sunlit
Object was in full shadow at epoch
Visualization orbit readout
Latitude
Unknown
Longitude
Unknown
Altitude
Unknown
Speed
Unknown
Apparent Right ascension
Unknown
Apparent Declination
Unknown
Sunlit
N/A
Visualization observer readout
Local Sidereal Time
01:27:27
Azimuth
Unknown
Elevation
Unknown
Doppler factor
Unknown
Orbital elements
Apogee altitude
501.594 km
Perigee altitude
497.48 km
Semi-major axis
6,877.674 km
Eccentricity
0.0003
Inclination
97.4172°
RAAN
18.978°
Arg. of periapsis
75.4809°
True anomaly
284.64274°
Mean anomaly
284.6759°
Eccentric anomaly
284.65932°
Mean motion
3.80523 °/min
Orbital period
94.61 mins
BSTAR
0.00029829
Loading maneuver chart data...
Computing Atmospheric mass density...
Loading historical data...
Loading historical data...
Loading historical data...
Loading historical data...
Loading historical data...
Loading historical data...
Loading historical data...

Documentation

Showing up to 5 results
|